ONEWEB-0167 (48064 NORAD) Tracking and Keplerian Element Data

This shows tracking and keplerian element data for the satellite.

Feedback or suggestion? Click here.




ElementValue
Catalog48064
NameONEWEB-0167
Epoch Orbit191
Epoch Day173.91668981
Epoch Year2021
RAAN322.2854
Inclination87.7887
Eccentricity0.0007638
Argument of Perigee351.7869
Mean Anonmoly105.2594
Mean Motion13.78774644
Decay Rate1.5E-07
L11 48064U 21025Y 21173.91668981 .00000015 00000-0 00000-0 0 9990
L22 48064 87.7887 322.2854 0007638 351.7869 105.2594 13.78774644 1916

Live tracking and technical data element details for ONEWEB-0167 (NORAD 48064). ONEWEB-0167 can be tracked NOW for your location showing map with azimuth and elevation plus other details from your city location.

Track the satellite on the map from your city or location and see movement details for azimuth, elevation, latitude, longitude, range, height, and movement on the map or in text.







IsCatalogInMostPopularTable: catalog: 48064, numindb: 47
Update: records affected: 1



GetName: 48064 ONEWEB-0167

Hit Count: updated at: Thu, 24 Jun 2021 04:05:22 GMT